Regional Weather Roundup
Issued by NWS

Home | Current Version | Previous Version | Graphics & Text | Print | Product List | Glossary On
Versions: 1 2 3 4 5 6 7 8 9 10 11 12 13 14 15 16 17 18 19 20 21 22 23 24 25 26 27 28 29 30 31 32 33 34 35 36 37 38 39 40 41 42 43 44 45 46 47 48 49 50
000
ASUS43 KIND 241700
RWRIN

WEATHER ROUNDUP FOR INDIANA
NATIONAL WEATHER SERVICE INDIANAPOLIS IN
1200 PM EST SAT FEB 24 2018

NOTE: "FAIR" INDICATES FEW OR NO CLOUDS BELOW 12,000 FEET WITH NO
SIGNIFICANT WEATHER AND/OR OBSTRUCTIONS TO VISIBILITY.

* - STATION DOES NOT REPORT WEATHER SUCH AS PRECIPITATION OR FOG.

+ - STATION NOT QUALITY CONTROLLED BY THE NATIONAL WEATHER SERVICE.
    USE DATA WITH CAUTION...ESPECIALLY DEWPOINT AND RELATIVE
    HUMIDITY OBSERVATIONS.

INZ001>003-010>013-019-020-241800-
NORTHWEST INDIANA

CITY           SKY/WX    TMP DP  RH WIND       PRES   REMARKS
GARY /AIRPORT/ CLOUDY    41  36  81 E7        30.10F
MONTICELLO +   CLOUDY    41  40  96 E9        30.07F

$$

LMZ046-743>745-241800-
SOUTHERN LAKE MICHIGAN

STATION/POSITION TIME  TEMP    WIND        PRES    WAVE
                       AIR SEA DIR/SP/G            HT
                 (UTC) (F)     (DEG/KT/KT) (MB)    (FT)
BURNS HARBOR     1640   39     110/  9/ 15 1020.0F
MICHIGAN CITY    1630   38     100/ 13/ 16   N/A

$$

INZ004-005-014>016-021>024-241800-
NORTH CENTRAL INDIANA

CITY           SKY/WX    TMP DP  RH WIND       PRES   REMARKS
GOSHEN         CLOUDY    39  35  86 E16       30.13F FOG     WCI  30
SOUTH BEND     CLOUDY    39  33  79 E16       30.12F WCI  30

$$

INZ006>009-017-018-025>027-241800-
NORTHEAST INDIANA

CITY           SKY/WX    TMP DP  RH WIND       PRES   REMARKS
AUBURN +       CLOUDY    37  36  93 E10       30.15F FOG     WCI  30
FORT WAYNE     LGT RAIN  40  38  93 E13       30.14F WCI  32
KENDALLVILLE + CLOUDY    37  35  94 E12G17    30.14R FOG     WCI  29

$$

INZ028-029-035-036-043>045-051>053-241800-
WEST CENTRAL INDIANA

CITY           SKY/WX    TMP DP  RH WIND       PRES   REMARKS
GREENCASTLE +  CLOUDY    45  45 100 SE10      30.01F
LAFAYETTE      CLOUDY    43  42  97 E15       30.04F
TERRE HAUTE    CLOUDY    48  46  93 E12       29.99F

$$

INZ030>032-037>040-046>048-054>057-064-065-241800-
CENTRAL INDIANA

CITY           SKY/WX    TMP DP  RH WIND       PRES   REMARKS
ANDERSON       CLOUDY    41  41 100 MISG      30.10
GREENWOOD *+   CLOUDY    44 -45   2 E10       30.05F
INDIANAPOLIS   LGT RAIN  46  45  96 E13       30.03F
-EAGLE CREEK   LGT RAIN  46  44  93 E10       30.03F
KOKOMO +       CLOUDY    41  40  96 E16       30.07F
MT COMFORT *+  CLOUDY    45  45 100 E10       30.04F
SHELBYVILLE    LGT RAIN  47  44  90 E9        30.04F

$$

INZ033-034-041-042-049-050-058-059-241800-
EAST CENTRAL INDIANA

CITY           SKY/WX    TMP DP  RH WIND       PRES   REMARKS
MUNCIE         LGT RAIN  45  42  89 NE10      30.09F
RICHMOND +     LGT RAIN  45  45 100 E14       30.09F

$$

INZ060-061-067>069-081>083-085>088-241800-
SOUTHWEST INDIANA

CITY           SKY/WX    TMP DP  RH WIND       PRES   REMARKS
EVANSVILLE     LGT RAIN  52  52 100 E6        29.99F
HUNTINGBURG +  LGT RAIN  52  50  93 E13       30.00F

$$

INZ062-063-066-070>080-084-089>092-241800-
SOUTH CENTRAL AND SOUTHEAST INDIANA

CITY           SKY/WX    TMP DP  RH WIND       PRES   REMARKS
BLOOMINGTON    RAIN      48  47  96 SE13      30.01F FOG
FRENCH LICK *+ CLOUDY    48 N/A N/A E7        30.02F
MADISON *+     CLOUDY    50  46  87 E9        30.07F
SEYMOUR +      CLOUDY    52  50  93 E7        30.04F

$$





USA.gov is the U.S. government's official web portal to all federal, state and local government web resources and services.